Location: Unspecified
(0.0000°N, 0.0000°E)
Time: 22:28:18
(UTC+00:00)

ISS - Visible Passes

Search period start: 20 April 2018 00:00
Search period end: 30 April 2018 00:00
Orbit: 403 x 406 km, 51.6° (Epoch: 21 April)

Date Brightness Start Highest point End Pass type
(mag) Time Alt. Az. Time Alt. Az. Time Alt. Az.
21 Apr -1.0 05:25:39 10° S 05:27:52 17° SE 05:30:05 10° E visible
21 Apr -1.4 18:35:22 10° WNW 18:37:59 22° SW 18:40:38 10° S visible
23 Apr -3.6 05:16:31 10° SSW 05:19:46 70° SE 05:22:59 10° NE visible
24 Apr -1.8 04:26:45 21° SSE 04:27:33 23° SE 04:30:14 10° ENE visible
25 Apr -2.6 05:10:11 19° W 05:11:36 25° NW 05:14:20 10° N visible
26 Apr -2.2 04:20:48 30° NNE 04:20:48 30° NNE 04:22:36 10° NNE visible
